Oujda, Morocco

6:01 AM WEST on September 25, 2016 (GMT +0100)
Angads

Weather History for GMFO - January, 2013

Change the Weather History Date:

Saturday, January 5, 2013

  Actual Average Record
Temperature  
Mean Temperature 48 °F -  
Max Temperature 62 °F 61 °F 75 °F (1999)
Min Temperature 35 °F 39 °F 32 °F (2000)
Degree Days  
Heating Degree Days 16    
Moisture  
Dew Point 40 °F    
Average Humidity 76    
Maximum Humidity 93    
Minimum Humidity 40    
Precipitation  
Precipitation 0.00 in - - ()
Sea Level Pressure  
Sea Level Pressure 30.52 in    
Wind  
Wind Speed 3 mph ()    
Max Wind Speed 8 mph    
Max Gust Speed -    
Visibility 10.8 miles    
Events      
Averages and records for this station are not official NWS values.
T = Trace of Precipitation, MM = Missing Value Source: Averaged Metar Reports

Daily Weather History Graph

Daily Weather History Graph

Search for Another Location

Airport or City:

Trip Planner

Search our weather history database for the weather conditions in past years. The results will help you decide how hot, cold, wet, or windy it might be!

Date:

Astronomy

Jan. 05, 2013 Rise Set
Actual Time 7:15 AM WET 5:10 PM WET
Civil Twilight 6:47 AM WET 5:38 PM WET
Nautical Twilight 6:16 AM WET 6:10 PM WET
Astronomical Twilight 5:45 AM WET 6:40 PM WET
Moon 12:14 AM WET (1/5) 11:44 AM WET (1/5)
Length of Visible Light 10h 50m
Length of Day
9h 55m
Waning Gibbous, 46% of the Moon is Illuminated
Jan 5
Waning Gibbous
Jan 11
New
Jan 18
First Quarter
Jan 27
Full
Feb 3
Last Quarter

Hourly Weather History & Observations

Time (WET) Temp. Windchill Dew Point Humidity Pressure Visibility Wind Dir Wind Speed Gust Speed Precip Events Conditions
12:00 AM 41 °F - 39 °F 91% 30.63 in 9 mi SW 3.5 mph - -  
12:00 AM 41.0 °F 39.0 °F 39.2 °F 93% 30.57 in - SW 3.5 mph - N/A   Clear
2:00 AM 41.0 °F 38.0 °F 39.2 °F 93% 30.54 in - SW 4.6 mph - N/A   Clear
3:00 AM 38 °F - 37 °F 93% 30.62 in 9 mi WSW 5.8 mph - -  
3:00 AM 39.2 °F 35.0 °F 37.4 °F 93% 30.54 in - WSW 5.8 mph - N/A   Clear
4:00 AM 37.4 °F - 35.6 °F 93% 30.54 in - Variable 2.3 mph - N/A   Clear
5:00 AM 37.4 °F - 35.6 °F 93% 30.54 in - Variable 2.3 mph - N/A   Clear
8:00 AM 35.6 °F 31.7 °F 32.0 °F 87% 30.57 in - WNW 4.6 mph - N/A   Clear
9:00 AM 41.0 °F - 39.2 °F 93% 30.57 in - Calm Calm - N/A   Clear
10:00 AM 46.4 °F - 42.8 °F 87% 30.57 in - Variable 2.3 mph - N/A   Clear
11:00 AM 51.8 °F - 44.6 °F 76% 30.54 in - Variable 2.3 mph - N/A   Clear
12:00 PM 57.2 °F - 44.6 °F 63% 30.54 in - Variable 2.3 mph - N/A   Clear
2:00 PM 60.8 °F - 41.0 °F 48% 30.48 in - NNW 5.8 mph - N/A   Clear
3:00 PM 61 °F - 43 °F 40% 30.46 in 12 mi North 8.1 mph - -  
3:00 PM 60.8 °F - 42.8 °F 52% 30.48 in - North 8.1 mph - N/A   Clear
4:00 PM 60.8 °F - 42.8 °F 52% 30.48 in - North 3.5 mph - N/A   Clear
5:00 PM 59.0 °F - 44.6 °F 59% 30.48 in - NE 1.2 mph - N/A   Clear
6:00 PM 52 °F - 42 °F 58% 30.49 in 12 mi Calm Calm - -  
6:00 PM 51.8 °F - 41.0 °F 67% 30.48 in - Calm Calm - N/A   Clear
7:00 PM 44.6 °F 40.7 °F 39.2 °F 81% 30.48 in - SW 6.9 mph - N/A   Clear
8:00 PM 42.8 °F 39.3 °F 37.4 °F 81% 30.48 in - SSW 5.8 mph - N/A   Clear
9:00 PM 42 °F - 37 °F 76% 30.53 in 12 mi SSW 6.9 mph - -  
9:00 PM 41.0 °F 36.4 °F 37.4 °F 87% 30.48 in - SSW 6.9 mph - N/A   Clear
11:00 PM 41.0 °F - 33.8 °F 76% 30.48 in - Calm Calm - N/A   Clear